Location: *
(50.8512°N, 5.6907°E)
Time: 10:04:53
(UTC+00:00)

SAR-Lupe-2 - Pass Details

Date: 09 April 2020
Orbit: 481 x 485 km, 98.1° (Epoch: 27 May)

Event Time Altitude Azimuth Distance (km) Brightness Sun altitude
Rises 20:14:34 0° 17° (NNE) 2,557 7.5 -16.6°
Reaches altitude 10° 20:16:40 10° 22° (NNE) 1,672 6.5 -16.9°
Maximum altitude 20:20:13 58° 102° (ESE) 571 3.5 -17.3°
Enters shadow 20:21:13 40° 159° (SSE) 724 4.0 -17.4°
